Tavèrnoles





Hora UTC 03:10
Temperatura 12.8 ºC
Humitat 60.0 %
Pressió 1005.8 hPa
Pluja 0.0 mm
Velocitat vent 0.0 km/h
Direcció vent S
Radiació solar 0.0 W/m²

Dades diàries 2022-05-23



Hora UTC (hivern +1h; estiu +2h)
Temperatura (ºC) Humitat (%) Pressió (hPa) Velocitat vent (km/h) Precipitació (mm) Radiació solar (W/m²)
Hora UTC Aire Humitat Pressió Vel. Dir. Vel. Max Dir. Intent. màx 5 min. Rad. Sol.
00:05 14.7 55.0 1007.6 4.8 S 4.8 0.0 0.0
00:10 14.7 54.0 1007.3 1.6 S 6.4 0.0 0.0
00:15 14.8 55.0 1007.4 0.0 S 9.7 0.0 0.0
00:20 15.0 54.0 1007.7 3.2 S 12.9 0.0 0.0
00:25 15.1 54.0 1007.6 0.0 S 12.9 0.0 0.0
00:30 15.2 55.0 1007.2 1.6 S 4.8 0.0 0.0
00:35 15.3 55.0 1007.3 0.0 S 6.4 0.0 0.0
00:40 15.4 55.0 1007.0 6.4 S 6.4 0.0 0.0
00:45 15.5 55.0 1006.7 0.0 S 6.4 0.0 0.0
00:50 15.6 52.0 1006.5 0.0 S 6.4 0.0 0.0
00:55 15.7 56.0 1007.1 0.0 S 4.8 0.0 0.0
01:00 15.9 51.0 1006.6 6.4 NNE 12.9 0.0 0.0
01:05 16.2 52.0 1006.4 0.0 ENE 12.9 0.0 0.0
01:10 16.3 53.0 1006.5 0.0 E 12.9 0.0 0.0
01:15 16.2 52.0 1006.6 0.0 E 0.0 0.0 0.0
01:20 16.1 53.0 1006.9 0.0 E 0.0 0.0 0.0
01:25 15.9 54.0 1007.1 0.0 SE 4.8 0.0 0.0
01:30 15.6 54.0 1007.0 0.0 S 4.8 0.0 0.0
01:35 15.4 54.0 1006.8 0.0 S 4.8 0.0 0.0
01:40 15.1 56.0 1006.8 0.0 S 0.0 0.0 0.0
01:45 14.8 56.0 1006.8 0.0 S 0.0 0.0 0.0
01:50 14.4 57.0 1006.6 0.0 S 0.0 0.0 0.0
01:55 14.3 58.0 1006.5 0.0 S 1.6 0.0 0.0
02:00 14.1 56.0 1006.6 0.0 S 1.6 0.0 0.0
02:05 14.2 58.0 1006.5 0.0 S 3.2 0.0 0.0
02:10 14.0 58.0 1006.4 0.0 S 3.2 0.0 0.0
02:15 13.6 59.0 1006.3 1.6 S 4.8 0.0 0.0
02:20 13.6 59.0 1006.3 1.6 S 4.8 0.0 0.0
02:25 13.5 59.0 1006.2 0.0 S 4.8 0.0 0.0
02:30 13.4 59.0 1006.0 0.0 S 4.8 0.0 0.0
02:35 13.3 59.0 1005.9 0.0 S 3.2 0.0 0.0
02:40 13.3 59.0 1005.9 0.0 S 3.2 0.0 0.0
02:45 13.2 60.0 1005.8 0.0 S 0.0 0.0 0.0
02:50 13.1 60.0 1005.5 0.0 S 0.0 0.0 0.0
02:55 12.9 60.0 1005.6 0.0 S 1.6 0.0 0.0
03:00 12.9 59.0 1005.7 0.0 S 1.6 0.0 0.0
03:05 12.8 59.0 1005.6 0.0 S 0.0 0.0 0.0
03:10 12.8 60.0 1005.8 0.0 S 1.6 0.0 0.0
Màxima 16.4 60.0 1007.7 6.4 NNE 12.9 0.0 0.0
Mínima 12.8 51.0 1005.5
Total 0.0